Total_Precipitation_Accumulation
0.25 0.28 0.28 0.26 0.22 0.21 0.17 0.08 0.06 0.06 0.03 0.03 0.02 0.01 0.01 0.01 0.00 0.01 0.01 0.03 0.04 0.05 0.05 0.04 0.03 0.03 0.04 0.05 0.05 0.06 0.06 0.06 0.06 0.06 0.05 0.05 0.04 0.04 0.05 0.05 0.05 0.05 0.04
0.30 0.32 0.28 0.26 0.23 0.22 0.24 0.15 0.12 0.12 0.05 0.04 0.04 0.03 0.02 0.01 0.01 0.01 0.01 0.02 0.03 0.03 0.03 0.03 0.04 0.04 0.05 0.06 0.07 0.07 0.08 0.08 0.09 0.10 0.11 0.11 0.10 0.09 0.09 0.09 0.08 0.07 0.07
0.28 0.31 0.33 0.31 0.26 0.23 0.23 0.19 0.16 0.18 0.17 0.12 0.09 0.06 0.03 0.02 0.02 0.02 0.01 0.01 0.01 0.02 0.02 0.02 0.03 0.03 0.03 0.03 0.06 0.08 0.10 0.11 0.12 0.13 0.13 0.15 0.16 0.16 0.15 0.14 0.13 0.12 0.11
0.21 0.27 0.31 0.31 0.29 0.28 0.29 0.26 0.24 0.23 0.21 0.16 0.12 0.08 0.05 0.04 0.03 0.02 0.02 0.01 0.01 0.01 0.01 0.01 0.01 0.01 0.02 0.03 0.03 0.04 0.06 0.09 0.12 0.13 0.14 0.16 0.19 0.19 0.18 0.18 0.18 0.16 0.15
0.28 0.34 0.37 0.42 0.42 0.43 0.41 0.38 0.33 0.28 0.24 0.19 0.13 0.08 0.06 0.04 0.03 0.02 0.02 0.02 0.01 0.01 0.00 0.00 0.01 0.02 0.02 0.02 0.02 0.03 0.04 0.07 0.09 0.09 0.09 0.10 0.15 0.17 0.17 0.19 0.21 0.20 0.19
0.55 0.62 0.64 0.63 0.58 0.54 0.48 0.42 0.36 0.31 0.24 0.19 0.14 0.08 0.05 0.03 0.02 0.01 0.01 0.01 0.00 0.00 0.00 0.00 0.00 0.01 0.02 0.03 0.03 0.04 0.04 0.05 0.05 0.06 0.05 0.07 0.09 0.10 0.11 0.14 0.16 0.16 0.19
1.00 0.99 0.90 0.81 0.73 0.63 0.54 0.45 0.35 0.27 0.20 0.15 0.10 0.07 0.03 0.02 0.01 0.01 0.00 0.00 0.00 0.00 0.00 0.00 0.00 0.00 0.01 0.02 0.02 0.01 0.01 0.01 0.01 0.01 0.02 0.04 0.06 0.07 0.07 0.07 0.08 0.10 0.13
1.44 1.39 1.29 1.18 1.06 0.84 0.59 0.39 0.28 0.22 0.18 0.13 0.09 0.06 0.03 0.01 0.01 0.00 0.00 0.00 0.00 0.00 0.00 0.00 0.00 0.00 0.00 0.00 0.00 0.00 0.01 0.00 0.00 0.01 0.01 0.02 0.02 0.03 0.04 0.04 0.05 0.07 0.09
1.66 1.62 1.50 1.26 0.95 0.66 0.44 0.29 0.23 0.17 0.12 0.08 0.04 0.03 0.02 0.01 0.00 0.00 0.00 0.00 0.00 0.00 0.00 0.00 0.00 0.00 0.00 0.00 0.00 0.00 0.00 0.00 0.00 0.00 0.00 0.00 0.01 0.01 0.02 0.03 0.05 0.06 0.08
1.50 1.37 1.23 0.94 0.66 0.44 0.29 0.20 0.13 0.09 0.05 0.04 0.02 0.01 0.01 0.00 0.00 0.00 0.00 0.00 0.00 0.00 0.00 0.00 0.00 0.00 0.00 0.00 0.00 0.00 0.00 0.00 0.00 0.00 0.00 0.00 0.00 0.01 0.02 0.04 0.05 0.06 0.09
1.04 0.81 0.65 0.46 0.31 0.20 0.12 0.08 0.05 0.03 0.02 0.01 0.01 0.00 0.00 0.00 0.00 0.00 0.00 0.00 0.00 0.00 0.00 0.00 0.00 0.00 0.00 0.00 0.00 0.00 0.00 0.00 0.00 0.00 0.00 0.01 0.01 0.02 0.03 0.06 0.09 0.09 0.10
0.65 0.42 0.27 0.16 0.10 0.05 0.03 0.01 0.01 0.01 0.00 0.00 0.00 0.00 0.00 0.00 0.00 0.00 0.00 0.00 0.00 0.00 0.00 0.00 0.00 0.00 0.00 0.00 0.00 0.00 0.00 0.00 0.00 0.00 0.00 0.00 0.01 0.02 0.03 0.04 0.08 0.12 0.16
0.29 0.16 0.10 0.06 0.03 0.02 0.01 0.00 0.00 0.00 0.00 0.00 0.00 0.00 0.00 0.00 0.00 0.00 0.00 0.00 0.00 0.00 0.00 0.00 0.00 0.00 0.00 0.00 0.00 0.00 0.00 0.00 0.00 0.00 0.00 0.00 0.01 0.01 0.02 0.03 0.05 0.08 0.12
0.11 0.06 0.04 0.02 0.01 0.01 0.00 0.00 0.00 0.00 0.00 0.00 0.00 0.00 0.00 0.00 0.00 0.00 0.00 0.00 0.00 0.00 0.00 0.00 0.00 0.00 0.00 0.00 0.00 0.00 0.00 0.01 0.01 0.01 0.01 0.01 0.01 0.02 0.02 0.03 0.04 0.05 0.07
0.05 0.03 0.02 0.01 0.01 0.00 0.00 0.00 0.00 0.00 0.00 0.01 0.00 0.00 0.00 0.00 0.00 0.01 0.01 0.01 0.02 0.02 0.01 0.00 0.00 0.00 0.00 0.00 0.00 0.00 0.00 0.01 0.02 0.02 0.02 0.02 0.02 0.02 0.03 0.04 0.04 0.05 0.05
0.03 0.02 0.02 0.01 0.00 0.00 0.00 0.00 0.00 0.00 0.00 0.01 0.01 0.01 0.02 0.01 0.02 0.02 0.02 0.03 0.03 0.04 0.03 0.01 0.00 0.00 0.00 0.00 0.00 0.01 0.01 0.02 0.02 0.03 0.03 0.04 0.04 0.03 0.03 0.04 0.05 0.06 0.06
0.02 0.02 0.02 0.01 0.00 0.00 0.00 0.00 0.00 0.01 0.01 0.02 0.02 0.03 0.03 0.04 0.04 0.04 0.04 0.04 0.03 0.03 0.04 0.02 0.01 0.01 0.02 0.03 0.03 0.04 0.04 0.06 0.06 0.07 0.08 0.08 0.07 0.07 0.07 0.08 0.09 0.10 0.10
0.02 0.01 0.01 0.01 0.01 0.01 0.01 0.01 0.01 0.02 0.02 0.03 0.03 0.04 0.04 0.04 0.05 0.05 0.04 0.04 0.04 0.05 0.06 0.05 0.03 0.02 0.03 0.04 0.06 0.08 0.06 0.05 0.07 0.07 0.10 0.10 0.10 0.11 0.10 0.10 0.09 0.09 0.09
0.02 0.02 0.02 0.02 0.02 0.02 0.01 0.01 0.01 0.01 0.02 0.02 0.02 0.02 0.02 0.02 0.03 0.04 0.04 0.04 0.04 0.04 0.07 0.09 0.07 0.06 0.05 0.06 0.11 0.11 0.10 0.12 0.10 0.11 0.10 0.10 0.09 0.08 0.07 0.06 0.06 0.06 0.05
0.04 0.04 0.03 0.02 0.01 0.01 0.00 0.00 0.00 0.00 0.00 0.01 0.01 0.01 0.01 0.02 0.04 0.05 0.05 0.05 0.06 0.08 0.10 0.13 0.13 0.10 0.08 0.07 0.13 0.14 0.12 0.12 0.12 0.09 0.09 0.08 0.07 0.05 0.04 0.04 0.04 0.04 0.04
0.04 0.02 0.01 0.01 0.01 0.00 0.00 0.00 0.00 0.00 0.00 0.00 0.01 0.01 0.01 0.02 0.04 0.05 0.05 0.07 0.11 0.15 0.16 0.18 0.16 0.12 0.09 0.10 0.13 0.15 0.14 0.10 0.06 0.06 0.10 0.10 0.11 0.10 0.09 0.09 0.07 0.06 0.04
0.02 0.01 0.01 0.01 0.01 0.00 0.00 0.00 0.00 0.00 0.00 0.01 0.01 0.02 0.02 0.02 0.02 0.02 0.05 0.10 0.16 0.19 0.19 0.20 0.18 0.17 0.12 0.13 0.15 0.16 0.17 0.17 0.14 0.10 0.14 0.11 0.12 0.12 0.12 0.15 0.15 0.09 0.05
0.01 0.01 0.01 0.01 0.01 0.01 0.00 0.00 0.00 0.00 0.01 0.02 0.03 0.03 0.02 0.01 0.02 0.04 0.05 0.07 0.07 0.08 0.14 0.22 0.23 0.20 0.18 0.18 0.23 0.23 0.24 0.25 0.20 0.15 0.22 0.18 0.12 0.13 0.13 0.14 0.14 0.10 0.08
0.02 0.01 0.01 0.01 0.02 0.01 0.00 0.00 0.00 0.00 0.01 0.02 0.03 0.03 0.03 0.03 0.04 0.05 0.04 0.03 0.03 0.05 0.08 0.12 0.19 0.19 0.19 0.21 0.25 0.27 0.28 0.28 0.21 0.18 0.28 0.28 0.14 0.13 0.12 0.17 0.20 0.14 0.11
0.01 0.01 0.01 0.01 0.02 0.03 0.01 0.00 0.00 0.00 0.01 0.01 0.02 0.02 0.03 0.05 0.06 0.07 0.05 0.05 0.05 0.05 0.05 0.08 0.14 0.21 0.23 0.26 0.27 0.30 0.36 0.40 0.30 0.17 0.25 0.33 0.22 0.17 0.15 0.19 0.21 0.18 0.14
0.01 0.01 0.01 0.01 0.02 0.04 0.01 0.00 0.00 0.00 0.01 0.01 0.01 0.02 0.03 0.06 0.05 0.05 0.04 0.07 0.11 0.09 0.10 0.15 0.22 0.28 0.31 0.39 0.40 0.38 0.43 0.43 0.36 0.31 0.28 0.33 0.29 0.25 0.22 0.17 0.18 0.19 0.17